This demonstration page uses our WeatherBlox Daily Observations layout. Learn more.

Left ArrowRight Arrow

41.86663, -103.66717

Hourly Observations for August 21, 2021

Temp ( °F °C ) Dew Point ( °F °C ) Humidity (%) Winds ( mph kmh ) Pressure ( in mb ) Visibility ( mi km ) Precip ( " mm )
12:53 am 00:53 Clear 54 12.2 45 7.2 72 72 NW 7 11 29.96 1015 10 16 N/A
1:53 am 01:53 Clear 51 10.6 45 7.2 80 80 N N/A 29.98 1015 10 16 N/A
2:53 am 02:53 Clear 52 11.1 45 7.2 77 77 SW 3 6 30.00 1016 10 16 N/A
3:53 am 03:53 Clear 50 10 44 6.7 80 80 SSW 6 9 30.02 1017 10 16 N/A
4:53 am 04:53 Clear 49 9.4 44 6.7 83 83 NNE 3 6 30.03 1017 10 16 N/A
5:53 am 05:53 Clear 49 9.4 45 7.2 86 86 N 8 13 30.02 1017 10 16 N/A
6:53 am 06:53 Mostly Sunny 50 10 45 7.2 83 83 N N/A 30.06 1018 10 16 N/A
7:53 am 07:53 Sunny 55 12.8 47 8.3 74 74 N N/A 30.07 1018 10 16 N/A
8:53 am 08:53 Sunny 60 15.6 48 8.9 65 65 VRB 3 6 30.06 1018 10 16 N/A
9:53 am 09:53 Sunny 65 18.3 47 8.3 52 52 SSE 7 11 30.04 1017 10 16 N/A
10:53 am 10:53 Sunny 70 21.1 46 7.8 42 42 E 15 24 30.00 1016 10 16 N/A
11:53 am 11:53 Sunny 76 24.4 42 5.6 30 30 S 12 19 29.95 1014 10 16 N/A
12:53 pm 12:53 Sunny 80 26.7 43 6.1 27 27 S 17 28 29.92 1013 10 16 N/A
1:53 pm 13:53 Mostly Sunny 82 27.8 45 7.2 27 27 SSE 15 24 29.89 1012 10 16 N/A
2:53 pm 14:53 Mostly Sunny 83 28.3 46 7.8 27 27 SSE 14 22 29.85 1011 10 16 N/A
3:53 pm 15:53 Mostly Sunny 86 30 47 8.3 26 26 S 20 31 29.82 1010 10 16 N/A
4:53 pm 16:53 Sunny 85 29.4 47 8.3 27 27 SSE 17 28 29.80 1009 10 16 N/A
5:53 pm 17:53 Sunny 82 27.8 48 8.9 31 31 SE 20 31 29.80 1009 10 16 N/A
6:53 pm 18:53 Sunny 78 25.6 49 9.4 36 36 SE 18 30 29.78 1009 10 16 N/A
7:53 pm 19:53 Clear 74 23.3 48 8.9 40 40 SE 17 28 29.80 1009 10 16 N/A
8:53 pm 20:53 Clear 69 20.6 50 10 51 51 ESE 16 26 29.80 1009 10 16 N/A
9:53 pm 21:53 Clear 67 19.4 50 10 55 55 ESE 13 20 29.81 1009 10 16 N/A
10:53 pm 22:53 Clear 67 19.4 49 9.4 53 53 ESE 16 26 29.80 1009 10 16 N/A
11:53 pm 23:53 Clear 64 17.8 50 10 60 60 SE 16 26 29.78 1008 10 16 N/A

Powered by AerisWeather